User: anonymous   Login
Location: Unspecified
(0.0000°N, 0.0000°E)
Time: 06:54:28
(UTC+02:00)
Language:

GPS 2-12 Rocket1 - Orbit

View from above orbital plane
View from above orbital plane
View from above satellite
View from above satellite

Ground track
Ground track

The orbit data is extracted from the following two-line orbital elements,

1 21891U 92009B   16205.55520447  .00000617  00000-0  25396-4 0  9990
2 21891  19.9973 317.8495 0047391 344.7836  15.1159 14.82686305317429
Epoch (UTC): 23 July 2016 13:19:29
Eccentricity: 0.0047391
inclination: 19.9973°
perigee height: 587 km
apogee height: 654 km
right ascension of ascending node: 317.8495°
argument of perigee: 344.7836°
revolutions per day: 14.82686305
mean anomaly at epoch: 15.1159°
orbit number at epoch: 31742

The dashed part of the orbit path shows where the satellite is in the earth's shadow,  

DLR